GW2484 Weather Reports


Display with metric or nautical units.
time (UTC)temp
F
wind
direction
speed
MPH
gust
MPH
rain 1hr
in
rain 24hr
in
rain mn
in
humidity
%
barometer
mb
20260904000517 93 222 3.0 14.0 0.00 0.00 0.00 46 1011.3
20260904000031 94 237 4.0 16.0 0.00 0.00 0.00 46 1011.3
20260903235521 94 209 9.0 18.0 0.00 0.00 0.00 45 1011.3
20260903235015 95 233 7.0 18.0 0.00 0.00 0.00 45 1011.3
20260903234511 95 256 6.0 12.0 0.00 0.00 0.00 45 1011.3
20260903234020 95 227 5.0 12.0 0.00 0.00 0.00 44 1011.3
20260903233510 96 208 4.0 13.0 0.00 0.00 0.00 44 1011.3
20260903233009 96 221 6.0 17.0 0.00 0.00 0.00 44 1011.4
20260903232514 96 187 7.0 17.0 0.00 0.00 0.00 44 1011.4
20260903232008 96 235 6.0 16.0 0.00 0.00 0.00 44 1011.3
20260903231535 96 289 7.0 16.0 0.00 0.00 0.00 45 1011.3
20260903231011 96 234 5.0 21.0 0.00 0.00 0.00 44 1011.2
20260903230509 96 227 11.0 21.0 0.00 0.00 0.00 44 1011.3
20260903230041 96 208 6.0 16.0 0.00 0.00 0.00 44 1011.3
20260903225514 96 214 7.0 17.0 0.00 0.00 0.00 44 1011.3
20260903225007 96 221 6.0 17.0 0.00 0.00 0.00 44 1011.3
20260903224533 96 165 8.0 18.0 0.00 0.00 0.00 44 1011.4
20260903224008 96 219 6.0 17.0 0.00 0.00 0.00 45 1011.4
20260903223514 96 279 8.0 21.0 0.00 0.00 0.00 43 1011.5
20260903223027 96 212 11.0 21.0 0.00 0.00 0.00 44 1011.4
20260903222508 96 286 9.0 21.0 0.00 0.00 0.00 44 1011.4
20260903222016 96 229 8.0 21.0 0.00 0.00 0.00 44 1011.4
20260903221519 97 198 8.0 14.0 0.00 0.00 0.00 45 1011.3
20260903221008 97 206 8.0 13.0 0.00 0.00 0.00 45 1011.4
20260903220514 97 213 5.0 15.0 0.00 0.00 0.00 45 1011.4
20260903220025 97 235 7.0 16.0 0.00 0.00 0.00 45 1011.4
20260903215519 96 212 5.0 19.0 0.00 0.00 0.00 45 1011.4
20260903215016 96 208 9.0 19.0 0.00 0.00 0.00 45 1011.5
20260903214526 97 223 7.0 16.0 0.00 0.00 0.00 45 1011.5
20260903214014 97 203 7.0 17.0 0.00 0.00 0.00 45 1011.7
20260903213514 97 214 7.0 15.0 0.00 0.00 0.00 46 1011.8
20260903213012 96 231 6.0 17.0 0.00 0.00 0.00 47 1011.8
20260903212520 96 189 6.0 19.0 0.00 0.00 0.00 48 1011.8
20260903212010 96 223 11.0 20.0 0.00 0.00 0.00 47 1011.8
20260903211534 96 215 8.0 20.0 0.00 0.00 0.00 47 1011.9
20260903211014 96 233 5.0 16.0 0.00 0.00 0.00 48 1011.9
20260903210510 96 218 7.0 16.0 0.00 0.00 0.00 48 1011.9
20260903210030 96 200 8.0 14.0 0.00 0.00 0.00 48 1012.0
20260903205513 96 233 7.0 17.0 0.00 0.00 0.00 46 1012.0
20260903205009 96 218 7.0 17.0 0.00 0.00 0.00 46 1012.1
20260903204531 97 247 3.0 17.0 0.00 0.00 0.00 46 1012.1
20260903204010 96 168 7.0 14.0 0.00 0.00 0.00 47 1012.2
20260903203520 96 212 7.0 17.0 0.00 0.00 0.00 47 1012.3
20260903203027 96 164 5.0 18.0 0.00 0.00 0.00 47 1012.3
20260903202518 96 200 12.0 18.0 0.00 0.00 0.00 46 1012.4
20260903202018 96 258 5.0 17.0 0.00 0.00 0.00 46 1012.5
20260903201532 96 214 7.0 17.0 0.00 0.00 0.00 46 1012.6
20260903201019 96 218 9.0 16.0 0.00 0.00 0.00 46 1012.6
20260903200521 96 185 7.0 16.0 0.00 0.00 0.00 47 1012.4
20260903200021 97 219 7.0 13.0 0.00 0.00 0.00 47 1012.5
20260903195521 96 221 6.0 17.0 0.00 0.00 0.00 46 1012.5
20260903195019 96 160 7.0 17.0 0.00 0.00 0.00 46 1012.5
20260903194523 96 208 9.0 17.0 0.00 0.00 0.00 46 1012.7
20260903194015 95 177 5.0 18.0 0.00 0.00 0.00 47 1012.7
20260903193516 95 221 10.0 18.0 0.00 0.00 0.00 47 1012.7
20260903193032 95 239 9.0 17.0 0.00 0.00 0.00 47 1012.7
20260903192521 95 248 10.0 20.0 0.00 0.00 0.00 47 1012.8
20260903192013 95 188 6.0 21.0 0.00 0.00 0.00 50 1012.9
20260903191535 96 221 12.0 21.0 0.00 0.00 0.00 47 1012.9
20260903191016 95 177 8.0 17.0 0.00 0.00 0.00 48 1012.9
20260903190515 96 231 6.0 17.0 0.00 0.00 0.00 47 1013.0
20260903190030 95 244 9.0 16.0 0.00 0.00 0.00 48 1012.9
20260903185515 95 226 10.0 18.0 0.00 0.00 0.00 48 1012.9
20260903185015 95 202 9.0 18.0 0.00 0.00 0.00 48 1013.1
20260903184531 96 223 10.0 15.0 0.00 0.00 0.00 47 1013.2
20260903184012 96 207 7.0 15.0 0.00 0.00 0.00 48 1013.2
20260903183507 96 164 4.0 16.0 0.00 0.00 0.00 48 1013.2
20260903183003 94 206 8.0 17.0 0.00 0.00 0.00 50 1013.3
20260903182513 94 222 13.0 18.0 0.00 0.00 0.00 48 1013.5
20260903182008 94 194 4.0 18.0 0.00 0.00 0.00 50 1013.5
20260903181503 94 196 5.0 19.0 0.00 0.00 0.00 49 1013.6
20260903181013 94 171 10.0 19.0 0.00 0.00 0.00 48 1013.6
20260903180508 94 200 5.0 23.0 0.00 0.00 0.00 49 1013.7
20260903180033 93 215 10.0 23.0 0.00 0.00 0.00 49 1013.8
20260903175510 93 158 9.0 20.0 0.00 0.00 0.00 49 1013.8
20260903175005 94 164 10.0 20.0 0.00 0.00 0.00 49 1013.9
20260903174523 93 176 8.0 18.0 0.00 0.00 0.00 51 1014.0
20260903174008 94 221 9.0 17.0 0.00 0.00 0.00 51 1014.1
20260903173504 93 236 6.0 17.0 0.00 0.00 0.00 51 1014.0
20260903173019 94 204 6.0 14.0 0.00 0.00 0.00 53 1014.1
20260903172507 93 217 8.0 18.0 0.00 0.00 0.00 52 1014.1
20260903172015 92 210 6.0 18.0 0.00 0.00 0.00 52 1014.1
20260903171512 92 198 9.0 17.0 0.00 0.00 0.00 54 1014.2
20260903171004 92 216 8.0 17.0 0.00 0.00 0.00 53 1014.2
20260903170512 92 254 6.0 17.0 0.00 0.00 0.00 53 1014.4
20260903170011 92 262 8.0 17.0 0.00 0.00 0.00 52 1014.5
20260903165502 92 166 8.0 14.0 0.00 0.00 0.00 52 1014.5
20260903165010 92 192 9.0 15.0 0.00 0.00 0.00 53 1014.5
20260903164508 92 214 7.0 15.0 0.00 0.00 0.00 54 1014.5
20260903164013 92 214 6.0 15.0 0.00 0.00 0.00 55 1014.6
20260903163515 91 173 6.0 15.0 0.00 0.00 0.00 55 1014.6
20260903163008 91 217 5.0 14.0 0.00 0.00 0.00 56 1014.6
20260903162514 90 235 6.0 13.0 0.00 0.00 0.00 56 1014.6
20260903162008 90 177 6.0 17.0 0.00 0.00 0.00 57 1014.7
20260903161505 90 210 5.0 17.0 0.00 0.00 0.00 57 1014.7
20260903161010 90 206 6.0 16.0 0.00 0.00 0.00 57 1014.7
20260903160508 90 224 3.0 12.0 0.00 0.00 0.00 57 1014.7
20260903160025 89 189 5.0 13.0 0.00 0.00 0.00 60 1014.9
20260903155509 89 205 7.0 13.0 0.00 0.00 0.00 58 1014.9
20260903155003 90 217 6.0 11.0 0.00 0.00 0.00 58 1015.0
20260903154531 89 216 2.0 9.0 0.00 0.00 0.00 60 1015.0
20260903154008 88 218 5.0 11.0 0.00 0.00 0.00 62 1015.1
20260903153504 88 199 3.0 14.0 0.00 0.00 0.00 62 1015.0
20260903153022 87 201 6.0 14.0 0.00 0.00 0.00 62 1015.1
20260903152507 87 211 7.0 12.0 0.00 0.00 0.00 62 1015.2
20260903152015 87 214 5.0 12.0 0.00 0.00 0.00 63 1015.2
20260903151518 87 239 5.0 10.0 0.00 0.00 0.00 63 1015.2
20260903151007 86 179 4.0 11.0 0.00 0.00 0.00 65 1015.2
20260903150516 86 216 4.0 11.0 0.00 0.00 0.00 64 1015.1
20260903150017 86 207 4.0 12.0 0.00 0.00 0.00 65 1015.2
20260903145520 85 256 4.0 16.0 0.00 0.00 0.00 66 1015.2
20260903145012 85 179 4.0 16.0 0.00 0.00 0.00 67 1015.2
20260903144518 85 224 6.0 14.0 0.00 0.00 0.00 66 1015.2
20260903144016 85 209 5.0 14.0 0.00 0.00 0.00 67 1015.3
20260903143511 84 223 7.0 14.0 0.00 0.00 0.00 67 1015.3
20260903143010 84 206 5.0 14.0 0.00 0.00 0.00 68 1015.4
20260903142515 84 202 6.0 14.0 0.00 0.00 0.00 67 1015.4
20260903142014 84 258 6.0 13.0 0.00 0.00 0.00 67 1015.4
20260903141538 84 215 6.0 11.0 0.00 0.00 0.00 68 1015.5
20260903141014 83 221 6.0 12.0 0.00 0.00 0.00 68 1015.6
20260903140510 83 200 3.0 12.0 0.00 0.00 0.00 68 1015.6
20260903140029 83 214 3.0 8.0 0.00 0.00 0.00 69 1015.6
20260903135512 82 212 3.0 10.0 0.00 0.00 0.00 70 1015.6
20260903135008 82 170 4.0 11.0 0.00 0.00 0.00 70 1015.6
20260903134527 82 191 6.0 12.0 0.00 0.00 0.00 70 1015.7
20260903134012 81 164 5.0 12.0 0.00 0.00 0.00 72 1015.6
20260903133517 81 167 3.0 9.0 0.00 0.00 0.00 72 1015.6
20260903133027 80 183 5.0 8.0 0.00 0.00 0.00 73 1015.7
20260903132509 80 186 2.0 6.0 0.00 0.00 0.00 74 1015.6
20260903132017 79 224 1.0 5.0 0.00 0.00 0.00 75 1015.6
20260903131523 79 216 1.0 9.0 0.00 0.00 0.00 75 1015.6
20260903131007 79 222 2.0 9.0 0.00 0.00 0.00 76 1015.6
20260903130520 78 204 2.0 7.0 0.00 0.00 0.00 77 1015.5
20260903130020 78 209 2.0 4.0 0.00 0.00 0.00 77 1015.5
20260903125521 77 222 2.0 4.0 0.00 0.00 0.00 78 1015.4
20260903125019 77 175 2.0 6.0 0.00 0.00 0.00 78 1015.4
20260903124517 77 189 3.0 6.0 0.00 0.00 0.00 78 1015.3
20260903124020 77 174 2.0 7.0 0.00 0.00 0.00 78 1015.2
20260903123512 77 212 2.0 7.0 0.00 0.00 0.00 78 1015.2
20260903123014 77 217 1.0 5.0 0.00 0.00 0.00 78 1015.2
20260903122517 77 196 1.0 5.0 0.00 0.00 0.00 78 1015.2
20260903122013 77 241 1.0 5.0 0.00 0.00 0.00 78 1015.1
20260903121530 77 216 2.0 7.0 0.00 0.00 0.00 78 1015.1
20260903121016 77 217 1.0 7.0 0.00 0.00 0.00 78 1015.0
20260903120511 77 215 2.0 7.0 0.00 0.00 0.00 78 1014.9
20260903120035 77 178 1.0 6.0 0.00 0.00 0.00 78 1014.9
20260903115515 77 191 2.0 9.0 0.00 0.00 0.00 77 1014.8
20260903115012 77 186 2.0 9.0 0.00 0.00 0.00 77 1014.7
20260903114532 77 183 1.0 4.0 0.00 0.00 0.00 77 1014.8
20260903114012 77 200 2.0 4.0 0.00 0.00 0.00 77 1014.9
20260903113517 77 192 2.0 5.0 0.00 0.00 0.00 76 1014.8
20260903113031 77 202 2.0 5.0 0.00 0.00 0.00 76 1014.9
20260903112511 77 191 3.0 4.0 0.00 0.00 0.00 76 1014.8
20260903112016 77 197 2.0 5.0 0.00 0.00 0.00 76 1014.7
20260903111531 77 188 1.0 6.0 0.00 0.00 0.00 77 1014.7
20260903111010 77 202 3.0 6.0 0.00 0.00 0.00 77 1014.7
20260903110516 77 178 2.0 6.0 0.00 0.00 0.00 77 1014.6
20260903110027 77 208 3.0 5.0 0.00 0.00 0.00 77 1014.7
20260903105521 77 183 1.0 3.0 0.00 0.00 0.00 77 1014.7
20260903105016 77 196 0.0 2.0 0.00 0.00 0.00 77 1014.7
20260903104526 77 197 0.0 2.0 0.00 0.00 0.00 77 1014.8
20260903104016 77 196 0.0 0.0 0.00 0.00 0.00 76 1014.7
20260903103515 77 196 0.0 0.0 0.00 0.00 0.00 76 1014.6
20260903103020 77 197 0.0 1.0 0.00 0.00 0.00 75 1014.6
20260903102515 77 196 0.0 3.0 0.00 0.00 0.00 75 1014.7
20260903102012 78 196 1.0 3.0 0.00 0.00 0.00 74 1014.6
20260903101534 78 197 0.0 2.0 0.00 0.00 0.00 74 1014.6
20260903101015 78 196 0.0 2.0 0.00 0.00 0.00 73 1014.6
20260903100514 78 196 0.0 2.0 0.00 0.00 0.00 73 1014.6
20260903100033 79 196 0.0 3.0 0.00 0.00 0.00 73 1014.6
20260903095513 79 199 2.0 4.0 0.00 0.00 0.00 73 1014.6
20260903095013 79 199 1.0 4.0 0.00 0.00 0.00 73 1014.6
20260903094535 79 185 1.0 4.0 0.00 0.00 0.00 73 1014.6
20260903094016 79 181 1.0 4.0 0.00 0.00 0.00 72 1014.5
20260903093511 79 191 1.0 2.0 0.00 0.00 0.00 72 1014.6
20260903093009 79 191 0.0 3.0 0.00 0.00 0.00 72 1014.5
20260903092512 79 191 0.0 4.0 0.00 0.00 0.00 72 1014.5
20260903092010 80 183 1.0 4.0 0.00 0.00 0.00 71 1014.5
20260903091505 80 200 1.0 3.0 0.00 0.00 0.00 71 1014.4
20260903091009 80 201 1.0 4.0 0.00 0.00 0.00 71 1014.4
20260903090508 80 202 1.0 4.0 0.00 0.00 0.00 71 1014.4
20260903090023 80 183 1.0 3.0 0.00 0.00 0.00 70 1014.3
20260903085513 80 208 1.0 3.0 0.00 0.00 0.00 70 1014.4
20260903085006 80 203 2.0 5.0 0.00 0.00 0.00 69 1014.3
20260903084536 81 200 2.0 5.0 0.00 0.00 0.00 69 1014.3
20260903084007 81 199 2.0 6.0 0.00 0.00 0.00 69 1014.3
20260903083504 81 191 3.0 6.0 0.00 0.00 0.00 69 1014.3
20260903083024 81 194 3.0 7.0 0.00 0.00 0.00 68 1014.4
20260903082510 81 206 3.0 8.0 0.00 0.00 0.00 68 1014.3
20260903082012 81 191 2.0 8.0 0.00 0.00 0.00 68 1014.3
20260903081520 81 194 3.0 7.0 0.00 0.00 0.00 68 1014.2
20260903081009 81 196 2.0 5.0 0.00 0.00 0.00 68 1014.2
20260903080517 81 194 2.0 5.0 0.00 0.00 0.00 68 1014.1
20260903080017 81 189 3.0 5.0 0.00 0.00 0.00 68 1014.1
20260903075505 81 198 2.0 4.0 0.00 0.00 0.00 67 1014.0
20260903075011 82 194 2.0 4.0 0.00 0.00 0.00 67 1014.0
20260903074511 82 196 2.0 7.0 0.00 0.00 0.00 67 1014.0
20260903074013 82 208 2.0 7.0 0.00 0.00 0.00 67 1014.0
20260903073513 82 191 3.0 7.0 0.00 0.00 0.00 66 1014.0
20260903073012 82 197 1.0 7.0 0.00 0.00 0.00 66 1014.0
20260903072517 82 181 2.0 6.0 0.00 0.00 0.00 66 1014.0
20260903072011 82 194 3.0 6.0 0.00 0.00 0.00 65 1014.0
20260903071510 82 198 2.0 5.0 0.00 0.00 0.00 65 1014.1
20260903071011 83 199 2.0 4.0 0.00 0.00 0.00 65 1014.1
20260903070509 83 198 2.0 5.0 0.00 0.00 0.00 65 1014.2
20260903070029 83 162 2.0 5.0 0.00 0.00 0.00 64 1014.3
20260903065514 83 197 2.0 6.0 0.00 0.00 0.00 64 1014.3
20260903065007 83 195 3.0 6.0 0.00 0.00 0.00 64 1014.2
20260903064526 83 181 2.0 6.0 0.00 0.00 0.00 63 1014.2
20260903064009 83 203 3.0 6.0 0.00 0.00 0.00 63 1014.2
20260903063510 84 208 3.0 5.0 0.00 0.00 0.00 63 1014.1
20260903063025 84 201 2.0 5.0 0.00 0.00 0.00 62 1014.1
20260903062512 84 189 2.0 3.0 0.00 0.00 0.00 62 1014.1
20260903062014 84 188 1.0 7.0 0.00 0.00 0.00 61 1014.1
20260903061528 84 203 2.0 7.0 0.00 0.00 0.00 61 1014.0
20260903061009 85 201 2.0 8.0 0.00 0.00 0.00 60 1013.9
20260903060515 85 216 3.0 8.0 0.00 0.00 0.00 60 1014.0
20260903060023 85 193 3.0 8.0 0.00 0.00 0.00 59 1014.0
20260903055510 85 228 3.0 6.0 0.00 0.00 0.00 59 1014.0
20260903055015 85 208 2.0 5.0 0.00 0.00 0.00 58 1013.9
20260903054519 85 198 3.0 4.0 0.00 0.00 0.00 58 1013.9
20260903054016 86 198 2.0 6.0 0.00 0.00 0.00 57 1013.9
20260903053515 86 196 1.0 7.0 0.00 0.00 0.00 57 1013.9
20260903053017 86 181 3.0 7.0 0.00 0.00 0.00 56 1013.8
20260903052514 86 178 1.0 6.0 0.00 0.00 0.00 56 1013.8
20260903052013 86 194 3.0 9.0 0.00 0.00 0.00 55 1013.9
20260903051511 87 174 2.0 9.0 0.00 0.00 0.00 55 1013.9
20260903051014 87 196 2.0 6.0 0.00 0.00 0.00 54 1013.9
20260903050512 87 200 1.0 7.0 0.00 0.00 0.00 54 1013.8
20260903050041 87 194 2.0 10.0 0.00 0.00 0.00 54 1013.8
20260903045516 87 212 2.0 10.0 0.00 0.00 0.00 53 1013.8
20260903045008 87 181 3.0 8.0 0.00 0.00 0.00 53 1013.8
20260903044529 87 191 3.0 10.0 0.00 0.00 0.00 52 1013.7
20260903044013 88 202 4.0 11.0 0.00 0.00 0.00 52 1013.6
20260903043509 88 190 5.0 11.0 0.00 0.00 0.00 52 1013.7
20260903043029 88 194 5.0 11.0 0.00 0.00 0.00 52 1013.6
20260903042510 88 181 2.0 11.0 0.00 0.00 0.00 52 1013.6
20260903042016 88 196 3.0 9.0 0.00 0.00 0.00 52 1013.6
20260903041533 88 140 3.0 7.0 0.00 0.00 0.00 52 1013.6
20260903041011 88 200 3.0 11.0 0.00 0.00 0.00 52 1013.6
20260903040517 88 197 3.0 11.0 0.00 0.00 0.00 52 1013.6
20260903040027 88 171 2.0 8.0 0.00 0.00 0.00 52 1013.5
20260903035507 88 183 2.0 8.0 0.00 0.00 0.00 52 1013.6
20260903035017 88 177 2.0 8.0 0.00 0.00 0.00 51 1013.5
20260903034533 88 196 3.0 7.0 0.00 0.00 0.00 52 1013.6
20260903034015 88 187 2.0 7.0 0.00 0.00 0.00 51 1013.5
20260903033515 88 202 2.0 6.0 0.00 0.00 0.00 51 1013.5
20260903033016 88 202 3.0 8.0 0.00 0.00 0.00 51 1013.4
20260903032516 88 157 2.0 8.0 0.00 0.00 0.00 51 1013.5
20260903032013 88 171 2.0 7.0 0.00 0.00 0.00 51 1013.5
20260903031512 88 156 3.0 7.0 0.00 0.00 0.00 51 1013.4
20260903031017 88 160 3.0 5.0 0.00 0.00 0.00 51 1013.4
20260903030518 88 162 3.0 5.0 0.00 0.00 0.00 52 1013.4
20260903030033 87 167 2.0 4.0 0.00 0.00 0.00 52 1013.3
20260903025513 87 168 1.0 3.0 0.00 0.00 0.00 52 1013.3
20260903025011 87 169 1.0 3.0 0.00 0.00 0.00 52 1013.3
20260903024511 87 169 1.0 3.0 0.00 0.00 0.00 53 1013.1
20260903024009 87 169 0.0 3.0 0.00 0.00 0.00 53 1013.1
20260903023510 87 169 0.0 3.0 0.00 0.00 0.00 53 1013.1
20260903023009 87 169 1.0 3.0 0.00 0.00 0.00 53 1013.1
20260903022513 87 170 0.0 3.0 0.00 0.00 0.00 53 1013.0
20260903022011 87 170 0.0 2.0 0.00 0.00 0.00 53 1012.9
20260903021508 87 170 0.0 2.0 0.00 0.00 0.00 54 1012.9
20260903021012 87 170 0.0 2.0 0.00 0.00 0.00 53 1012.8
20260903020507 87 170 0.0 2.0 0.00 0.00 0.00 53 1012.8
20260903020013 87 170 0.0 2.0 0.00 0.00 0.00 53 1012.8
20260903015513 88 170 0.0 2.0 0.00 0.00 0.00 53 1012.7
20260903015010 88 170 0.0 2.0 0.00 0.00 0.00 52 1012.7
20260903014531 88 170 0.0 2.0 0.00 0.00 0.00 52 1012.7
20260903014010 88 171 0.0 2.0 0.00 0.00 0.00 53 1012.6
20260903013503 89 171 0.0 0.0 0.00 0.00 0.00 52 1012.6
20260903013023 89 171 0.0 0.0 0.00 0.00 0.00 51 1012.5
20260903012508 89 171 0.0 1.0 0.00 0.00 0.00 51 1012.5
20260903012004 90 171 0.0 2.0 0.00 0.00 0.00 50 1012.3
20260903011537 90 171 0.0 2.0 0.00 0.00 0.00 49 1012.3
20260903011008 90 171 0.0 2.0 0.00 0.00 0.00 48 1012.2
20260903010518 91 171 0.0 2.0 0.00 0.00 0.00 48 1012.1
20260903010018 91 171 0.0 0.0 0.00 0.00 0.00 48 1012.0
20260903005503 92 171 0.0 0.0 0.00 0.00 0.00 47 1012.0
20260903005018 93 171 0.0 0.0 0.00 0.00 0.00 46 1012.0
20260903004511 93 171 0.0 2.0 0.00 0.00 0.00 45 1012.0
20260903004015 94 171 0.0 2.0 0.00 0.00 0.00 44 1012.0
20260903003512 95 171 0.0 2.0 0.00 0.00 0.00 44 1012.0
20260903003010 95 171 0.0 3.0 0.00 0.00 0.00 42 1012.0
20260903002518 96 170 1.0 8.0 0.00 0.00 0.00 41 1012.0
20260903002012 96 167 0.0 8.0 0.00 0.00 0.00 40 1012.0
20260903001506 97 202 1.0 6.0 0.00 0.00 0.00 40 1012.0
20260903001018 97 199 2.0 6.0 0.00 0.00 0.00 39 1012.1